SnugLite
1 43784U 18099AC  24223.59787803  .00014618  00000-0  97268-3 0  9998
2 43784  97.4903 278.4748 0006029 120.7637 239.4185 15.07226670310836
ITASat 1
1 43786U 18099AE  24223.12521564  .00013253  00000-0  93027-3 0  9992
2 43786  97.5045 278.8862 0017766 164.9308 195.2452 15.05146247310680
EAGLET 1
1 43790U 18099AJ  24223.09390819  .00010633  00000-0  78147-3 0  9995
2 43790  97.5259 279.3442 0014839 142.4945 217.7319 15.03513695310379
ESEO
1 43792U 18099AL  24223.71227519  .00005421  00000-0  43929-3 0  9991
2 43792  97.5176 276.4592 0011729 127.5161 232.7131 15.00045715310371
CSIM
1 43793U 18099AM  24223.17469203  .00038639  00000-0  18762-2 0  9993
2 43793  97.5258 287.5083 0013159 125.8543 234.3915 15.18277283310964
JO-97
1 43803U 18099AX  24223.57849316  .00019644  00000-0  12536-2 0  9994
2 43803  97.5156 281.0713 0010948 116.1995 244.0361 15.08669835310891
Suomi 100
1 43804U 18099AY  24223.39420908  .00016407  00000-0  10722-2 0  9996
2 43804  97.5220 280.6737 0016869 115.9735 244.3233 15.07765804310840
ISAT
1 43879U 18111D   24223.50484851  .00023004  00000-0  13338-2 0  9990
2 43879  97.6117 128.9896 0013544 163.2625 196.9055 15.12101388307622
UWE-4
1 43880U 18111E   24223.19687642  .00018010  00000-0  10782-2 0  9991
2 43880  97.6051 128.5615 0016501 174.8947 185.2454 15.10959119307587
Sparrow
1 43881U 18111F   24223.72156956  .00022892  00000-0  13079-2 0  9995
2 43881  97.6212 131.2145 0009126 198.6673 161.4224 15.12677214305721
Prox-1
1 44339U 19036A   24223.30467426  .00017694  00000-0  29620-2 0  9995
2 44339  23.9984 236.9177 0008433 237.4805 122.4875 14.68235746273201
SONATE
1 44400U 19038Q   24223.42294015  .00035229  00000-0  97033-3 0  9999
2 44400  97.7140 220.0518 0012244 269.5837  90.4003 15.36992455282404
Taurus 1
1 44530U 19059C   24223.80945072  .00018185  00000-0  40997-2 0  9992
2 44530  98.5800 345.4706 0010979 242.8690 117.1387 14.56346327259717
Duchifat 3
1 44854U 19089C   24223.80586250  .00033156  00000-0  15658-2 0  9994
2 44854  36.9565  76.8899 0005118 219.6256 140.4118 15.18573165256503
TO-108
1 44881U 19093C   24223.79685635  .00003096  00000-0  37779-3 0  9993
2 44881  97.8253 299.5276 0015273 140.2955 219.9381 14.83966471251140
FloripaSat 1
1 44885U 19093G   24223.78989877  .00013730  00000-0  13868-2 0  9999
2 44885  97.8391 305.9733 0013485 132.0275 228.2094 14.91097096251505
RS-44
1 44909U 19096E   24223.75987102  .00000009  00000-0 -12629-5 0  9998
2 44909  82.5181  68.5079 0216482 283.7138  73.9949 12.79732654215996
BY70-2
1 45857U 20042B   24223.78418762  .01143635  00000-0  10083-1 0  9999
2 45857  97.8941 321.9863 0014708 290.3834  69.5845 15.66107562222978
UPMSat 2
1 46276U 20061E   24223.13913020  .00029169  00000-0  82668-3 0  9996
2 46276  97.2928 288.8271 0000266 110.5246 249.6026 15.36211015218457
AmicalSat
1 46287U 20061R   24223.12691483  .00058090  00000-0  13614-2 0  9992
2 46287  97.3436 290.5601 0001414  78.1351 282.0054 15.41889391217863
SALSAT
1 46495U 20068K   24223.48385256  .00013092  00000-0  72028-3 0  9995
2 46495  97.8203 184.1863 0015630 123.5279 236.7447 15.14092461212522
UVSQ-SAT
1 47438U 21006AB  24223.72198375  .00125668  00000-0  17594-2 0  9996
2 47438  97.3191 285.2283 0002871  16.9976 343.1374 15.56361652197196
SOMP 2b
1 47445U 21006AJ  24223.72590215  .00098007  00000-0  16311-2 0  9995
2 47445  97.3149 283.1923 0004401  37.1148 323.0408 15.51681599197096
IDEASSat
1 47458U 21006AX  24223.75035495  .00080079  00000-0  15270-2 0  9999
2 47458  97.3270 283.5611 0004784  37.7541 322.4044 15.47871216197013
CubeSX-Sirius-HSE
1 47951U 21022V   24223.82810989  .00042362  00000-0  15214-2 0  9993
2 47951  97.4518 122.1339 0010845 311.3931  48.6375 15.28483450186910
CubeSX-HSE
1 47952U 21022W   24223.84277493  .00043269  00000-0  15477-2 0  9991
2 47952  97.4520 122.2508 0010720 310.5257  49.5049 15.28612255186923
KSU-Cubesat
1 47954U 21022Y   24223.71497119  .00051202  00000-0  16364-2 0  9990
2 47954  97.4525 123.7189 0009090 304.7652  55.2733 15.32238312186728
GRBAlpha
1 47959U 21022AD  24223.80372949  .00042631  00000-0  15211-2 0  9994
2 47959  97.4521 122.3704 0010667 310.6814  49.3498 15.28698212185742
Orbicraft-Zorkiy
1 47960U 21022AE  24223.85133865  .00053259  00000-0  17617-2 0  9993
2 47960  97.4565 123.9089 0009243 307.2210  52.8187 15.31119382186515
STECCO
1 47962U 21022AG  24222.68146149  .01243228  78052-3  28484-2 0  9991
2 47962  97.4401 135.9697 0010886 161.4729 198.6946 15.97418177186534
TUBIN
1 48900U 21059X   24223.88606864  .00034155  00000-0  10912-2 0  9990
2 48900  97.6526  10.2167 0006029 249.6866 110.3727 15.32369191173296
LEDSAT
1 49069U 21073D   24223.74773211  .00033330  00000-0  12442-2 0  9993
2 49069  97.4332 294.5857 0019322  93.1261 267.2189 15.27142090164778
CUTE
1 49263U 21088D   24223.14907492  .00033987  00000-0  14772-2 0  9995
2 49263  97.4922 288.8629 0012506 247.5566 112.4346 15.22134028157845
TeikyoSat 4
1 49396U 21102B   24223.71432810  .00005444  00000-0  38934-3 0  9993
2 49396  97.4565 266.8088 0015376  91.0649 269.2339 15.04756241150957
Z-Sat
1 49399U 21102E   24223.85575464  .00010819  00000-0  68198-3 0  9991
2 49399  97.4276 268.6360 0021741  72.6042 287.7562 15.09109356151236
KOSEN 1
1 49402U 21102H   24223.84792974  .00014373  00000-0  82592-3 0  9995
2 49402  97.4197 270.2733 0019683  56.9704 303.3414 15.12434563151403
HO-113
1 50466U 21131B   24223.82071634  .00001972  00000-0  64268-3 0  9991
2 50466  98.5274 308.6375 0003494 337.9704  22.1333 14.39791799137861
IRIS-A
1 51044U 22002BN  24223.88983184  .00044263  00000-0  13267-2 0  9992
2 51044  97.3798 290.2932 0006170 186.8688 173.2472 15.34340972142804
OreSat0
1 52017U 22026K   24223.58570455  .00203114  00000-0  19892-2 0  9991
2 52017  97.4888 240.7472 0007250  47.1658 313.0209 15.65436698134180
Planetum 1
1 52738U 22057G   24223.82900964  .00093445  00000-0  18014-2 0  9993
2 52738  97.5698 352.1816 0004938 300.7153  59.3610 15.47500548123009
Foresail-1
1 52766U 22057AL  24223.81552362  .00040947  00000-0  12125-2 0  9994
2 52766  97.5878 350.7273 0008453 296.3459  63.6916 15.34727825122827
SNUGLITE 2
1 52899U 22065F   24223.36707332  .00003638  00000-0  74932-3 0  9990
2 52899  98.1270   3.4911 0007358 352.6619   7.4473 14.61090602112171
IO-117
1 53106U 22080B   24220.17464831 -.00000003  00000-0  00000-0 0  9995
2 53106  70.1402 174.8068 0007673  95.8653 264.2881  6.42557506 48546
SelfieSat
1 53951U 22057BC  24223.88961492  .00388531  00000-0  26722-2 0  9998
2 53951  97.5660 357.6919 0008210 279.7383  80.2953 15.73501098123336
FO-118
1 54684U 22167C   24223.87248207  .00061075  00000-0  18434-2 0  9997
2 54684  97.6110  10.1571 0009313 310.3284  49.7144 15.34012051 92670
SSS-2B
1 56184U 23054G   24223.81217746  .00078833  00000-0  15979-2 0  9999
2 56184  97.3597 122.4277 0004549  12.2960 347.8400 15.46101539 74566
CIRBE
1 56188U 23054L   24223.71401410  .00178882  00000-0  18822-2 0  9990
2 56188  97.3504 125.3657 0002289  99.4173 260.7345 15.63714334 74770
INSPIRE-Sat 7
1 56211U 23054AK  24223.72376658  .00245762  00000-0  21135-2 0  9996
2 56211  97.3510 126.9088 0001535 149.9591 210.1758 15.68568850 74869
RoseyCubesat 1
1 56212U 23054AL  24223.29771849  .00437953  00000-0  23272-2 0  9999
2 56212  97.3507 127.8371 0003978 152.8274 207.3202 15.79308376 74886
SO-120
1 56992U 23084BU  24223.07997466  .00059132  00000-0  18904-2 0  9993
2 56992  97.5354 343.1774 0011712 195.0971 164.9923 15.32162125 64427
MRC-100
1 56993U 23084BV  24223.81302732  .00082614  00000-0  23961-2 0  9992
2 56993  97.5350 344.5279 0010740 193.1558 166.9406 15.35157791 64580
UmKA 1 (RS40S)
1 57172U 23091G   24223.87702831  .00012904  00000-0  83097-3 0  9992
2 57172  97.6078 275.3863 0014869 296.8931  63.0777 15.08395189 61737
CubeBel-2 (EU11S)
1 57175U 23091K   24223.86459527  .00017092  00000-0  10713-2 0  9992
2 57175  97.6076 275.3910 0013246 309.8403  50.1659 15.09340500 61732
VERONIKA
1 58261U 23174F   24223.75216380  .00037502  00000-0  15546-2 0  9994
2 58261  97.4567 298.1146 0011811  57.3823 302.8552 15.23724925 42015
KAFASAT
1 58317U 23174BP  24223.83533464  .00052155  00000-0  19114-2 0  9996
2 58317  97.4509 299.0270 0009799  32.5999 327.5843 15.27774210 42093
ENSO
1 58470U 23185J   24223.81963015  .00035059  00000-0  13792-2 0  9995
2 58470  97.4219 290.0329 0013085  89.9623 270.3114 15.25483953 38461
EIRSAT-1
1 58472U 23185L   24223.83433339  .00039965  00000-0  15324-2 0  9993
2 58472  97.4214 290.1415 0012610  91.0884 269.1800 15.26314632 38478
SO-121
1 58567U 23174CY  24223.75478370  .00108709  00000-0  29427-2 0  9993
2 58567  97.4489 299.9034 0008083  36.3075 323.8716 15.37227438 42146
SONATE-2
1 59112U 24043Q   24222.91380404  .00020400  00000-0  94357-3 0  9999
2 59112  97.4840 346.2385 0015507 107.0134 253.2801 15.20070520 23960
KASHIWA
1 59508U 98067WH  24223.81692925  .05053463  11994-4  16783-2 0  9993
2 59508  51.6110  27.2781 0013984 288.0051  71.9445 16.24772712 19143
MESAT1
1 60209U 24125G   24223.55110625  .00021953  00000-0  10071-2 0  9990
2 60209  97.3184  75.3154 0027687 131.7688 228.5920 15.20094589  5679
